{"data":{"norad_id":56895,"intl_designator":"2023-083V","name":"STARLINK-6208","alt_names":[],"object_type":"PAYLOAD","status":"ACTIVE","operator":null,"country":"US","launch_date":"2023-06-12","launch_site_code":"AFETR","launch_vehicle":null,"mission":null,"orbit_class":"UNKNOWN","rcs_meters":null,"size_class":null,"mass_kg":null,"dimensions":null,"purposes":["comms"],"wikipedia_slug":null,"has_3d_model":false,"image_url":null,"decayed_at":null,"tle_current":{"epoch":"2026-09-19T19:19:31.746720Z","epoch_age_seconds":177628,"freshness":"STALE","line1":"1 56895U 23083V   26262.80522855  .00000323  00000+0  21269-4 0  9993","line2":"2 56895  43.0044  72.7020 0002272 273.3216  86.7376 15.27577299181275","mean_motion":15.27577299,"eccentricity":0.0002272,"inclination_deg":43.0044,"raan_deg":72.702,"arg_perigee_deg":273.3216,"mean_anomaly_deg":86.7376,"bstar":2.1269e-5,"rev_number":18127,"period_min":94.26691539228,"perigee_km":481.49832049869,"apogee_km":484.61604713581,"semimajor_km":6861.1941838172,"source":"CELESTRAK","updated_at":"2026-09-21T09:00:33.523335Z"}}}